Location: Unspecified
(51.0950°N, 12.9690°E)
Time: 15:40:21
(UTC+00:00)

ATLAS 5 CENTAUR R/B - Pass Details

Date: 28 October 2021
Orbit: 497 x 1159 km, 63.4° (Epoch: 25 November)

Event Time Altitude Azimuth Distance (km) Brightness Sun altitude
Rises 16:32:15 0° 247° (WSW) 2,648 6.9 -7.3°
Reaches altitude 10° 16:34:24 10° 255° (WSW) 1,811 5.7 -7.6°
Maximum altitude 16:38:13 41° 327° (NNW) 870 2.5 -8.2°
Drops below altitude 10° 16:42:40 10° 38° (NE) 2,102 3.8 -8.9°
Enters shadow 16:43:52 - 42° (NE) 2,566 4.3 -9.1°
